Back to catalog

STARLINK-35847

AliveCommunicationsVLEO
NORAD 66621·PAYLOAD·🇺🇸 United States

Launched Nov 23, 2025 from Vandenberg Space Force Base

Loading…

Next Passes (next 24 hours)

TLE

FreshSource: CelesTrak SupGP

Epoch: Sep 14, 2026, 14:11 UTC

1 66621C 25271E   26257.59145833 -.00017517  00000+0 -51779-3 0  2579
2 66621  53.1581 341.4495 0001223  81.6070 263.4175 15.34385032    19

Track STARLINK-35847 in real time with AllMySat

Download on the App Store